Regional Weather Roundup
Issued by NWS Binghamton, NY

Home | Current Version | Previous Version | Text Only | Print | Product List | Glossary On
Versions: 1 2 3 4 5 6 7 8 9 10 11 12 13 14 15 16 17 18 19 20 21 22 23 24 25 26 27 28
000
ASUS41 KBGM 292110
RWRBGM

REGIONAL WEATHER ROUNDUP
NATIONAL WEATHER SERVICE BINGHAMTON NY
500 PM EDT FRI APR 29 2016

Note: "fair" indicates few or no clouds below 12,000 feet with no
significant weather and/or obstructions to visibility.

* = Station(s) that does not report precipitation, such as rain,
snow, etc, also no thunder or fog.

NYZ009-015>018-022>025-036-037-044>046-055>057-062-292200
...Central New York...

CITY           SKY/WX    TMP DP  RH WIND       PRES   REMARKS
Binghamton     CLOUDY    49  36  61 S9        30.02R
Cortland       CLOUDY    54  36  50 SE5       30.02R
Dansville      CLOUDY    50  42  74 S6        30.04R
Elmira         RAIN      49  43  80 S3        30.02S
Ithaca         CLOUDY    53  39  59 S7        30.03R
Hamilton       CLOUDY    48  43  81 E5        30.05S
Hornell        DRIZZLE   46  41  81 CALM      30.06R
Monticello     CLOUDY    48  34  57 S7        30.07R
Norwich        CLOUDY    54  34  47 SW5       30.04S
Penn Yan       CLOUDY    51  38  60 CALM      30.03S
Rome           CLOUDY    51  44  77 SE3       30.07F
Sidney         CLOUDY    55  37  50 SE5       30.03S
Syracuse       CLOUDY    51  44  77 E8        30.05F
$$

PAZ038>040-043-044-047-048-072-292200
...Northeast Pennsylvania...

CITY           SKY/WX    TMP DP  RH WIND       PRES   REMARKS
Hazleton       CLOUDY    45  36  70 SE8       30.05S
Scranton       CLOUDY    50  39  66 CALM      30.03S
$$
&&
KEY
WCI = Wind Chill Index
VSB = Visibility
HX  = Heat Index
$$




USA.gov is the U.S. government's official web portal to all federal, state and local government web resources and services.